Probability
0 1 3 6 6 6 5 5 6 6 5 2 3 7 10 9 6 5 4 4 5 5 5 4 4 5 6 6 4 2 0 0 0 0 0 0 0 0 0 0 0 1 1
1 1 4 6 6 6 6 5 5 5 3 2 2 4 6 7 4 4 4 4 4 5 5 4 3 4 5 5 4 1 0 0 0 0 0 0 0 0 0 1 1 1 1
2 2 3 5 6 6 6 5 4 2 1 1 1 1 2 2 2 2 3 3 4 6 6 4 3 3 3 3 3 2 1 0 0 0 0 0 0 0 0 1 2 2 1
3 1 2 5 6 6 5 4 3 1 0 0 0 0 0 0 0 1 2 3 4 6 6 5 4 3 3 3 3 2 1 0 0 0 0 0 0 0 0 1 2 2 2
1 1 2 6 7 6 4 3 3 2 1 0 0 0 0 0 0 0 2 3 4 6 7 6 6 5 5 5 4 2 1 0 0 0 0 0 0 0 0 0 1 2 2
1 1 4 7 8 6 4 3 3 3 2 1 0 0 0 0 0 1 2 3 4 5 7 8 8 8 8 7 4 2 1 0 0 0 0 0 0 0 0 0 0 1 2
4 4 7 9 9 7 5 4 4 4 3 2 1 1 1 0 0 1 2 3 3 4 5 6 7 8 8 6 4 3 2 1 1 0 0 0 0 0 0 0 0 0 1
7 8 9 10 9 8 8 6 5 4 4 3 3 2 2 1 0 0 1 2 3 3 4 4 5 6 6 5 3 3 3 3 2 0 0 0 1 2 1 1 0 0 0
7 8 10 9 10 11 10 8 6 5 5 4 3 3 2 1 0 0 1 2 3 3 3 3 4 5 5 4 3 3 3 3 1 0 0 1 2 3 3 2 1 0 0
7 8 8 9 10 11 11 9 8 6 5 3 3 2 2 1 0 0 1 1 2 2 2 2 2 3 4 3 3 3 2 1 0 0 0 1 3 4 5 4 2 0 0
9 8 8 9 10 10 10 8 7 6 4 3 2 2 2 1 0 0 0 1 1 1 2 2 1 1 2 3 3 2 1 0 0 0 1 3 5 5 5 4 3 2 1
10 9 8 9 10 11 10 8 6 4 4 3 3 3 3 2 1 0 0 0 1 2 2 1 0 0 1 2 2 1 0 0 0 0 2 5 7 6 5 5 4 3 2
10 9 8 8 10 11 12 10 7 5 4 4 3 3 3 3 1 0 0 0 1 2 1 0 0 0 0 1 1 0 0 0 0 0 2 5 7 7 6 6 5 3 3
10 10 9 9 9 11 12 12 9 7 6 5 4 3 3 3 2 1 1 0 1 1 1 1 0 0 0 0 0 0 0 0 0 0 1 3 5 6 7 7 6 5 3
13 12 12 12 11 10 11 11 8 7 8 8 7 5 4 3 3 3 2 2 2 2 2 2 1 0 0 0 0 0 0 0 0 0 1 2 4 6 8 8 8 7 6
17 15 15 16 14 12 11 9 7 7 9 9 8 7 6 4 3 3 3 3 3 3 3 3 2 1 0 0 0 0 0 0 0 0 0 1 4 7 9 9 10 9 9
21 20 19 18 16 15 14 11 8 8 10 10 8 7 8 6 4 3 3 3 3 3 3 3 3 2 1 0 0 0 0 0 0 0 0 0 2 5 8 9 10 10 10
24 23 22 21 19 18 17 13 10 10 11 10 7 6 8 8 6 4 4 4 4 3 2 2 2 2 2 1 0 0 0 0 0 0 0 0 0 2 6 8 9 9 10
26 25 23 22 20 19 17 13 11 11 10 9 7 6 7 7 6 5 5 5 5 5 3 2 1 1 2 2 1 0 0 0 0 0 0 0 0 1 3 5 6 8 9
31 28 24 22 22 20 16 12 11 11 9 8 8 7 7 6 6 5 4 4 5 5 5 3 1 1 1 2 2 1 0 1 2 1 1 2 1 1 3 3 4 5 6
34 31 27 25 24 20 16 13 12 12 10 9 9 8 7 7 6 5 4 4 5 6 7 5 4 3 2 3 3 2 1 2 3 3 3 3 2 3 4 4 4 4 4
34 32 31 29 26 21 17 16 15 13 12 11 9 8 7 7 7 6 6 6 6 6 6 6 5 5 4 5 5 5 3 3 3 3 3 3 2 3 5 6 5 5 4
34 34 33 32 29 23 19 19 18 16 13 11 8 7 8 9 9 8 8 8 7 6 6 6 6 6 6 6 6 6 5 4 3 3 3 3 3 4 5 6 6 6 5
38 37 37 36 32 25 22 23 22 19 14 10 8 7 9 10 11 10 9 8 7 6 6 6 6 6 6 6 6 6 6 5 4 4 4 3 2 3 3 4 5 6 6
39 39 40 38 33 28 25 24 23 19 14 9 8 8 9 10 11 10 9 7 7 6 6 6 6 6 6 6 6 6 6 6 6 6 5 3 1 1 1 1 3 5 6
38 39 39 37 33 29 25 21 19 16 12 9 8 7 8 9 10 9 8 7 6 6 6 6 6 6 6 6 6 6 6 6 6 6 5 3 2 1 0 0 1 2 3
Wind_Speed
5 6 12 12 12 12 13 13 13 13 13 13 12 12 12 13 12 12 12 12 12 12 12 12 12 12 12 12 12 12 12 12 12 12 13 13 12 11 11 11 10 7 11
10 8 13 12 12 13 13 13 13 13 12 12 12 12 12 12 11 12 12 12 12 12 12 12 12 11 12 12 11 11 12 11 12 12 12 11 11 11 11 11 10 7 10
11 8 11 13 12 13 14 13 13 12 12 12 12 12 11 11 11 11 11 11 11 11 11 11 11 10 11 11 11 11 11 11 11 11 10 5 7 11 11 11 10 10 10
12 8 10 14 13 14 14 13 13 12 12 12 11 12 11 11 11 11 11 11 10 10 10 10 10 9 9 9 9 9 10 10 10 10 5 4 4 10 11 11 10 10 10
10 7 10 15 14 14 14 13 13 12 12 12 11 11 11 11 10 10 10 10 10 9 9 9 9 9 8 8 8 8 9 10 10 7 4 4 4 9 10 10 10 9 9
10 8 10 15 15 14 13 13 12 12 11 11 11 11 10 10 9 9 10 9 9 9 8 8 8 8 7 7 7 8 9 9 7 4 4 4 3 8 10 9 9 9 8
10 7 9 14 14 13 12 12 11 11 11 11 10 10 10 9 9 9 9 9 8 8 8 8 7 7 7 6 6 7 8 8 6 4 4 4 5 9 9 8 8 8 8
12 8 8 13 14 13 12 12 11 10 10 10 10 10 9 9 8 8 9 8 8 8 8 7 7 6 6 6 6 6 7 7 6 5 4 4 7 9 8 8 8 8 7
10 8 6 7 9 12 12 11 10 10 9 9 9 9 9 8 8 8 8 8 7 7 6 6 6 6 5 5 5 6 6 8 5 3 5 3 7 9 9 8 8 7 7
8 7 6 5 5 5 7 10 10 10 9 9 9 9 8 8 7 7 6 6 6 6 6 5 5 5 4 4 4 5 7 6 4 3 2 4 8 8 8 8 8 7 6
8 6 6 5 4 4 5 7 8 9 8 8 6 8 7 3 3 3 5 5 5 5 5 4 4 4 4 4 4 5 5 2 3 2 2 6 8 8 8 8 7 7 7
9 7 6 6 5 4 4 4 3 3 3 3 2 3 2 2 2 3 4 5 5 4 4 4 4 3 2 2 3 3 2 3 2 2 3 7 8 8 8 7 7 7 7
10 9 7 7 6 5 3 3 2 1 2 2 3 3 2 2 1 1 1 2 2 2 1 1 2 1 2 2 2 2 2 2 1 2 3 8 8 8 8 7 7 7 6
10 9 8 7 6 5 4 3 2 2 2 2 2 3 3 2 2 1 1 1 1 1 1 1 1 2 2 3 3 3 3 2 2 1 3 7 7 8 8 7 7 6 6
10 9 9 8 7 5 4 3 3 2 2 2 2 2 3 3 3 2 1 1 1 1 2 2 1 2 2 2 2 3 3 3 3 2 2 6 7 8 8 8 7 7 7
10 10 9 9 8 6 4 3 3 3 2 2 2 3 3 3 3 3 2 2 1 2 2 2 2 2 2 2 2 2 3 3 3 2 2 3 6 7 7 7 6 6 7
10 10 9 9 8 7 5 4 3 3 3 2 2 3 3 3 3 3 2 2 2 2 2 2 2 2 2 2 2 2 2 2 2 2 2 1 2 5 6 6 6 6 6
9 9 9 9 8 7 6 4 3 3 3 2 2 2 3 3 4 3 3 2 2 2 2 2 2 2 2 2 1 1 1 2 2 2 2 2 1 2 4 6 6 6 6
10 10 9 8 8 7 6 4 3 3 3 2 2 2 2 3 3 3 3 2 2 2 2 2 2 2 2 1 1 1 1 2 2 3 3 3 2 2 2 4 6 6 6
9 9 9 8 7 6 4 3 3 3 2 2 2 2 3 2 3 3 2 2 2 2 2 2 3 2 1 1 1 1 0 1 1 2 3 3 2 3 3 3 2 3 6
8 8 9 8 7 6 4 4 3 2 2 1 2 3 3 3 3 3 2 2 3 3 3 3 2 2 1 1 2 2 2 1 0 1 1 1 1 2 2 2 2 2 2
8 8 8 8 7 6 5 4 3 3 2 2 1 1 2 3 3 3 3 2 2 3 3 2 2 2 1 1 2 2 2 3 3 1 0 1 1 1 1 2 2 2 2
9 8 8 8 7 6 6 4 3 3 2 1 1 1 1 2 3 3 3 3 3 3 2 2 2 3 1 0 1 3 3 2 2 2 1 0 0 0 1 2 3 3 3
8 7 7 8 7 6 7 6 7 5 3 3 2 2 1 2 2 3 3 3 3 2 3 2 2 2 3 1 0 1 2 3 2 1 2 1 1 1 2 2 2 2 3
7 6 6 7 6 6 6 6 6 4 3 2 2 2 2 1 2 2 3 3 3 2 3 2 2 2 2 2 2 1 1 1 2 2 1 2 2 2 1 2 2 2 3
5 5 6 6 5 5 6 5 5 5 5 5 4 3 2 1 1 1 2 2 2 2 2 2 2 2 2 2 2 2 2 2 2 2 2 2 2 2 2 1 2 2 2
Wind_Direction
150 153 137 128 121 115 111 108 104 100 96 95 94 95 97 100 103 108 112 113 112 112 113 111 112 112 113 114 116 119 121 121 122 123 124 124 124 124 124 123 119 116 120
150 149 138 132 126 120 116 112 109 106 102 100 99 99 99 99 103 107 112 113 114 114 113 113 115 115 115 115 117 119 122 122 123 124 124 122 123 126 126 125 121 120 123
141 142 138 132 128 124 120 118 115 111 107 105 104 105 104 103 104 108 114 116 117 118 117 117 118 117 117 117 116 117 119 119 123 121 119 110 117 124 125 124 121 121 123
137 137 137 133 130 127 124 123 121 117 113 110 109 109 109 108 107 109 114 118 120 120 121 120 121 120 119 118 116 115 118 117 123 120 110 108 114 124 125 125 125 125 125
133 136 141 135 133 131 128 127 126 123 121 118 114 111 110 110 109 109 113 117 121 124 124 124 124 123 119 118 115 116 120 118 117 116 113 112 115 127 128 132 131 131 131
133 137 141 138 136 133 131 131 131 129 128 124 119 116 113 112 110 112 115 119 125 128 129 130 131 132 126 122 118 114 119 118 117 115 117 124 132 135 136 138 137 136 137
135 138 141 140 138 135 133 132 134 133 132 128 123 120 117 116 115 115 118 120 126 133 134 135 136 136 134 129 121 117 124 124 118 117 124 133 141 139 140 140 141 144 145
137 138 140 145 142 140 138 136 134 133 134 131 126 124 122 121 121 122 124 122 125 136 140 142 143 139 139 135 126 124 128 127 119 121 126 140 149 148 145 144 146 147 147
134 136 137 143 145 145 143 141 140 137 135 135 133 130 129 126 125 126 130 129 126 132 142 145 145 143 142 140 133 128 124 128 117 126 137 143 152 156 153 153 152 152 154
131 136 137 138 137 140 146 148 146 141 138 137 139 139 140 139 135 134 136 140 137 133 136 139 144 145 147 141 138 127 127 126 115 115 124 148 157 159 160 159 157 155 156
138 144 142 136 134 135 145 150 150 148 148 144 146 152 148 144 147 146 149 151 150 148 147 146 146 143 137 125 133 129 125 117 117 121 138 147 155 159 160 160 159 160 163
154 158 154 150 145 145 151 137 144 151 152 149 154 157 149 155 176 168 168 166 163 163 164 160 155 155 143 105 116 121 118 124 120 141 155 152 157 160 162 162 164 168 173
159 157 157 159 154 155 146 142 142 139 146 158 166 164 156 157 172 168 158 174 176 175 162 163 158 137 135 131 122 122 126 129 138 158 157 159 163 165 167 168 169 170 177
155 158 155 154 153 157 147 152 149 150 158 169 178 170 158 154 153 159 166 169 166 157 142 133 126 135 141 147 145 142 146 152 157 162 169 168 169 170 171 169 169 172 178
157 159 158 155 155 154 146 160 155 164 168 175 170 172 167 158 164 170 172 175 177 152 147 139 131 135 129 137 148 144 154 162 162 166 175 171 174 176 175 174 176 179 178
160 161 159 156 158 157 156 162 162 167 164 161 162 171 162 157 162 162 166 175 185 168 157 144 146 140 134 135 138 148 155 160 165 170 173 177 181 177 176 176 178 178 177
162 158 155 156 156 156 154 166 163 164 154 153 158 161 154 149 154 155 161 166 186 164 141 127 120 106 111 114 128 161 163 162 163 165 170 175 183 182 179 180 182 181 178
153 152 156 158 157 156 155 163 161 157 151 151 151 149 150 152 153 151 153 163 167 143 128 125 114 104 103 117 145 179 164 148 162 165 165 175 185 193 190 189 191 187 187
154 153 157 154 156 157 154 148 141 143 151 155 148 146 154 153 146 146 153 155 143 133 129 138 118 128 126 134 160 155 149 153 171 169 176 190 194 193 200 199 198 196 197
150 152 155 152 154 147 135 121 117 118 134 144 153 161 162 157 145 139 143 142 130 122 120 121 119 115 137 154 144 107 105 176 174 182 195 199 200 197 201 208 203 204 203
145 151 154 154 156 149 144 146 148 152 150 145 158 157 158 155 150 139 143 139 136 135 149 140 127 109 103 102 84 44 12 15 81 199 193 174 190 195 189 202 197 208 209
158 160 155 158 161 160 161 157 153 147 153 159 161 153 157 148 155 153 149 151 151 136 130 136 126 127 143 114 121 98 21 354 344 337 195 172 188 184 191 205 194 201 213
166 164 161 164 164 160 151 134 116 91 72 81 136 180 179 155 152 147 150 151 153 144 149 156 145 148 164 203 134 141 144 212 304 329 313 283 136 174 222 213 202 202 199
166 160 156 159 159 159 156 155 155 155 163 188 185 174 160 147 143 144 147 150 154 151 155 170 162 163 150 173 207 177 166 161 155 299 323 325 299 236 233 223 210 208 203
154 153 148 148 151 155 160 163 164 160 161 149 141 141 148 145 146 145 140 146 157 162 166 157 144 145 157 170 174 169 128 112 139 159 248 302 320 285 253 241 213 212 206
140 146 145 144 153 157 154 155 162 160 154 148 152 161 172 172 185 157 140 144 167 176 174 170 160 152 164 166 165 161 160 162 182 171 197 235 266 280 269 248 223 222 210